NOZ3PY EGCC-ENBR

Flight info

Callsign NOZ3PY
Flight time 1h 20m
Altitude 35000
Route POL UP17 TIPTA UM82 ROBEM DCT RIGVU DCT MODNI
Aircraft B738/M-SDE2E3FGHIRWXY/LB1

Departure

Time 2026-05-05 18:20
Airport Manchester Airport (EGCC)

Arrival

Time 2026-05-05 19:41
Airport Bergen Airport, Flesland (ENBR)
Time Latitude Longitude Altitude Speed Heading
2026-05-05 17:51 53.36892 -2.28790 254 ft 0 kts 135°
2026-05-05 18:05 53.36896 -2.28797 254 ft 2 kts 134°
2026-05-05 18:05 53.36908 -2.28816 254 ft 2 kts 136°
2026-05-05 18:06 53.36919 -2.28835 254 ft 2 kts 138°
2026-05-05 18:06 53.36928 -2.28847 254 ft 2 kts 145°
2026-05-05 18:06 53.36947 -2.28853 254 ft 2 kts 220°
2026-05-05 18:06 53.36950 -2.28848 254 ft 0 kts 223°
2026-05-05 18:11 53.36941 -2.28862 254 ft 4 kts 223°
2026-05-05 18:11 53.36911 -2.28911 254 ft 8 kts 225°
2026-05-05 18:11 53.36858 -2.28999 254 ft 13 kts 225°
2026-05-05 18:11 53.36770 -2.29067 254 ft 13 kts 195°
2026-05-05 18:12 53.36708 -2.29022 254 ft 9 kts 135°
2026-05-05 18:12 53.36663 -2.28947 254 ft 9 kts 134°
2026-05-05 18:12 53.36620 -2.28873 254 ft 9 kts 134°
2026-05-05 18:12 53.36585 -2.28792 254 ft 9 kts 120°
2026-05-05 18:13 53.36547 -2.28706 254 ft 10 kts 132°
2026-05-05 18:13 53.36499 -2.28623 254 ft 10 kts 135°
2026-05-05 18:13 53.36447 -2.28532 254 ft 11 kts 130°
2026-05-05 18:13 53.36405 -2.28418 254 ft 12 kts 111°
2026-05-05 18:14 53.36359 -2.28307 254 ft 12 kts 135°
2026-05-05 18:14 53.36303 -2.28214 254 ft 10 kts 135°
2026-05-05 18:14 53.36263 -2.28148 254 ft 8 kts 134°
2026-05-05 18:14 53.36213 -2.28064 254 ft 12 kts 135°
2026-05-05 18:15 53.36139 -2.27951 254 ft 16 kts 141°
2026-05-05 18:15 53.36067 -2.27879 254 ft 9 kts 175°
2026-05-05 18:15 53.36012 -2.27909 254 ft 8 kts 181°
2026-05-05 18:15 53.35978 -2.27882 254 ft 1 kts 144°
2026-05-05 18:16 53.35972 -2.27875 254 ft 2 kts 148°
2026-05-05 18:16 53.35929 -2.27852 254 ft 12 kts 170°
2026-05-05 18:16 53.35812 -2.27863 250 ft 20 kts 187°
2026-05-05 18:16 53.35664 -2.27889 242 ft 20 kts 185°
2026-05-05 18:17 53.35527 -2.27912 236 ft 17 kts 186°
2026-05-05 18:17 53.35420 -2.27979 239 ft 17 kts 221°
2026-05-05 18:17 53.35337 -2.28113 236 ft 16 kts 225°
2026-05-05 18:17 53.35255 -2.28251 231 ft 18 kts 226°
2026-05-05 18:18 53.35176 -2.28413 228 ft 19 kts 232°
2026-05-05 18:18 53.35092 -2.28592 228 ft 17 kts 231°
2026-05-05 18:18 53.35012 -2.28742 226 ft 19 kts 227°
2026-05-05 18:18 53.34917 -2.28910 224 ft 21 kts 226°
2026-05-05 18:19 53.34826 -2.29049 220 ft 14 kts 206°
2026-05-05 18:19 53.34738 -2.29056 226 ft 13 kts 157°
2026-05-05 18:19 53.34678 -2.28972 218 ft 10 kts 107°
2026-05-05 18:19 53.34708 -2.28873 220 ft 11 kts 53°
2026-05-05 18:20 53.34879 -2.28520 230 ft 72 kts 51°
2026-05-05 18:20 53.35332 -2.27589 241 ft 132 kts 50°
2026-05-05 18:20 53.35967 -2.26246 577 ft 154 kts 51°
2026-05-05 18:20 53.36687 -2.24776 1131 ft 169 kts 51°
2026-05-05 18:21 53.37395 -2.23293 2092 ft 159 kts 51°
2026-05-05 18:21 53.38112 -2.21751 2562 ft 181 kts 52°
2026-05-05 18:21 53.38935 -2.19967 2786 ft 205 kts 52°
2026-05-05 18:21 53.39847 -2.17987 3043 ft 221 kts 52°
2026-05-05 18:22 53.40796 -2.15924 3620 ft 225 kts 52°
2026-05-05 18:22 53.41758 -2.13832 4204 ft 231 kts 52°
2026-05-05 18:22 53.42792 -2.11582 4512 ft 254 kts 52°
2026-05-05 18:22 53.44035 -2.09465 4956 ft 259 kts 30°
2026-05-05 18:23 53.45754 -2.08743 5000 ft 257 kts 356°
2026-05-05 18:23 53.47543 -2.09133 5007 ft 262 kts 354°
2026-05-05 18:23 53.49378 -2.09306 5068 ft 266 kts
2026-05-05 18:23 53.51212 -2.08948 5808 ft 267 kts
2026-05-05 18:24 53.53043 -2.08466 6639 ft 268 kts
2026-05-05 18:24 53.54892 -2.07968 7342 ft 271 kts
2026-05-05 18:24 53.56793 -2.07465 7795 ft 287 kts
2026-05-05 18:24 53.58843 -2.06939 8009 ft 309 kts
2026-05-05 18:25 53.61015 -2.06396 8456 ft 320 kts
2026-05-05 18:25 53.62471 -2.06034 9070 ft 317 kts
2026-05-05 18:25 53.65419 -2.05307 10036 ft 323 kts
2026-05-05 18:25 53.67658 -2.04760 10644 ft 328 kts
2026-05-05 18:26 53.69925 -2.04210 11308 ft 330 kts
2026-05-05 18:26 53.72213 -2.03656 11929 ft 336 kts
2026-05-05 18:26 53.74549 -2.03093 12570 ft 341 kts
2026-05-05 18:26 53.76903 -2.02524 13265 ft 344 kts
2026-05-05 18:27 53.79290 -2.01947 13935 ft 348 kts
2026-05-05 18:27 53.81700 -2.01365 14547 ft 353 kts
2026-05-05 18:27 53.84144 -2.00773 15204 ft 356 kts
2026-05-05 18:27 53.86613 -2.00173 15845 ft 360 kts
2026-05-05 18:28 53.91627 -1.98954 17118 ft 369 kts
2026-05-05 18:28 53.94185 -1.98331 17759 ft 373 kts
2026-05-05 18:28 53.96765 -1.97701 18376 ft 377 kts
2026-05-05 18:29 53.99379 -1.97062 18924 ft 381 kts
2026-05-05 18:29 54.02009 -1.96419 19457 ft 385 kts
2026-05-05 18:29 54.04669 -1.95768 19997 ft 388 kts
2026-05-05 18:29 54.07324 -1.95117 20533 ft 392 kts
2026-05-05 18:30 54.10054 -1.94230 21063 ft 398 kts 11°
2026-05-05 18:30 54.12702 -1.93006 21577 ft 402 kts 13°
2026-05-05 18:30 54.15403 -1.91698 22094 ft 405 kts 13°
2026-05-05 18:30 54.18133 -1.90410 22605 ft 409 kts 12°
2026-05-05 18:31 54.20885 -1.89128 23090 ft 412 kts 12°
2026-05-05 18:31 54.23664 -1.87839 23600 ft 416 kts 12°
2026-05-05 18:31 54.26474 -1.86537 23983 ft 420 kts 12°
2026-05-05 18:31 54.29304 -1.85224 24415 ft 423 kts 12°
2026-05-05 18:32 54.32149 -1.83901 24823 ft 425 kts 12°
2026-05-05 18:32 54.35010 -1.82568 25220 ft 428 kts 12°
2026-05-05 18:32 54.37895 -1.81221 25613 ft 431 kts 12°
2026-05-05 18:32 54.40795 -1.79866 25985 ft 434 kts 12°
2026-05-05 18:33 54.43713 -1.78499 26366 ft 436 kts 13°
2026-05-05 18:33 54.46650 -1.77122 26735 ft 439 kts 13°
2026-05-05 18:33 54.49608 -1.75733 27100 ft 442 kts 12°
2026-05-05 18:33 54.52588 -1.74333 27400 ft 446 kts 12°
2026-05-05 18:34 54.55588 -1.72918 27744 ft 449 kts 13°
2026-05-05 18:34 54.58608 -1.71484 28107 ft 451 kts 13°
2026-05-05 18:34 54.61639 -1.70039 28454 ft 453 kts 13°
2026-05-05 18:34 54.64689 -1.68583 28774 ft 456 kts 13°
2026-05-05 18:35 54.67756 -1.67117 29088 ft 459 kts 13°
2026-05-05 18:35 54.70849 -1.65637 29390 ft 462 kts 13°
2026-05-05 18:35 54.73951 -1.64151 29701 ft 464 kts 13°
2026-05-05 18:35 54.77065 -1.62657 30068 ft 465 kts 12°
2026-05-05 18:36 54.80185 -1.61085 30279 ft 470 kts 16°
2026-05-05 18:36 54.83213 -1.58856 30465 ft 476 kts 24°
2026-05-05 18:36 54.86120 -1.56260 30869 ft 474 kts 25°
2026-05-05 18:36 54.89060 -1.53551 31333 ft 471 kts 26°
2026-05-05 18:37 54.91911 -1.50918 31721 ft 469 kts 25°
2026-05-05 18:37 54.94795 -1.48279 32042 ft 469 kts 25°
2026-05-05 18:37 54.97693 -1.45654 32333 ft 469 kts 25°
2026-05-05 18:37 55.00584 -1.43054 32702 ft 468 kts 25°
2026-05-05 18:38 55.03474 -1.40463 33052 ft 467 kts 24°
2026-05-05 18:38 55.06364 -1.37875 33362 ft 467 kts 24°
2026-05-05 18:38 55.09250 -1.35287 33656 ft 467 kts 24°
2026-05-05 18:38 55.12135 -1.32695 33969 ft 466 kts 25°
2026-05-05 18:39 55.15016 -1.30101 34258 ft 465 kts 25°
2026-05-05 18:39 55.17887 -1.27511 34539 ft 464 kts 25°
2026-05-05 18:39 55.20755 -1.24918 34792 ft 463 kts 25°
2026-05-05 18:39 55.23613 -1.22331 35026 ft 463 kts 25°
2026-05-05 18:40 55.29365 -1.17111 35096 ft 467 kts 25°
2026-05-05 18:40 55.35097 -1.11887 35072 ft 460 kts 25°
2026-05-05 18:41 55.40768 -1.06706 35074 ft 459 kts 24°
2026-05-05 18:41 55.46438 -1.01515 35084 ft 460 kts 24°
2026-05-05 18:42 55.52058 -0.96592 35107 ft 461 kts 23°
2026-05-05 18:42 55.57847 -0.91640 35087 ft 463 kts 22°
2026-05-05 18:43 55.63654 -0.86642 35076 ft 465 kts 23°
2026-05-05 18:43 55.69463 -0.81596 35074 ft 465 kts 23°
2026-05-05 18:44 55.75268 -0.76523 35078 ft 465 kts 23°
2026-05-05 18:44 55.81025 -0.71475 35089 ft 464 kts 23°
2026-05-05 18:45 55.86810 -0.66385 35072 ft 463 kts 23°
2026-05-05 18:45 55.92573 -0.61299 35075 ft 461 kts 23°
2026-05-05 18:46 55.98316 -0.56214 35077 ft 460 kts 23°
2026-05-05 18:46 56.04023 -0.51144 35080 ft 458 kts 23°
2026-05-05 18:47 56.09732 -0.46056 35081 ft 457 kts 23°
2026-05-05 18:47 56.15419 -0.40970 35078 ft 457 kts 23°
2026-05-05 18:48 56.21092 -0.35881 35079 ft 456 kts 23°
2026-05-05 18:48 56.26775 -0.30765 35080 ft 456 kts 23°
2026-05-05 18:49 56.32447 -0.25641 35097 ft 457 kts 23°
2026-05-05 18:49 56.38134 -0.20488 35087 ft 458 kts 23°
2026-05-05 18:50 56.43836 -0.15303 35086 ft 459 kts 23°
2026-05-05 18:50 56.49540 -0.10099 35085 ft 460 kts 23°
2026-05-05 18:51 56.55253 -0.04868 35085 ft 460 kts 23°
2026-05-05 18:51 56.60856 0.00279 35083 ft 462 kts 23°
2026-05-05 18:52 56.66552 0.05529 35091 ft 462 kts 23°
2026-05-05 18:52 56.72289 0.10835 35084 ft 463 kts 23°
2026-05-05 18:53 56.78029 0.16162 35085 ft 463 kts 23°
2026-05-05 18:53 56.82843 0.20645 35084 ft 463 kts 23°
2026-05-05 18:54 56.88581 0.26004 35086 ft 464 kts 23°
2026-05-05 18:54 56.94286 0.31352 35080 ft 463 kts 23°
2026-05-05 18:55 57.00017 0.36742 35081 ft 463 kts 23°
2026-05-05 18:55 57.05729 0.42133 35081 ft 462 kts 23°
2026-05-05 18:56 57.11440 0.47542 35112 ft 462 kts 23°
2026-05-05 18:56 57.17147 0.52974 35088 ft 462 kts 23°
2026-05-05 18:57 57.22843 0.58425 35077 ft 461 kts 23°
2026-05-05 18:57 57.28540 0.63880 35073 ft 461 kts 23°
2026-05-05 18:58 57.34219 0.69333 35083 ft 460 kts 23°
2026-05-05 18:58 57.39901 0.74809 35093 ft 461 kts 23°
2026-05-05 18:59 57.45590 0.80309 35083 ft 461 kts 23°
2026-05-05 18:59 57.51278 0.85830 35076 ft 462 kts 23°
2026-05-05 19:00 57.56980 0.91384 35080 ft 462 kts 23°
2026-05-05 19:00 57.62678 0.96955 35077 ft 463 kts 23°
2026-05-05 19:01 57.68270 1.02439 35083 ft 464 kts 22°
2026-05-05 19:01 57.73994 1.08074 35081 ft 465 kts 22°
2026-05-05 19:02 57.79717 1.13729 35079 ft 465 kts 22°
2026-05-05 19:02 57.85410 1.19376 35066 ft 466 kts 23°
2026-05-05 19:03 57.91137 1.25075 35067 ft 466 kts 23°
2026-05-05 19:03 57.96870 1.30801 35080 ft 467 kts 22°
2026-05-05 19:04 58.02591 1.36536 35075 ft 467 kts 22°
2026-05-05 19:04 58.08333 1.42313 35070 ft 467 kts 22°
2026-05-05 19:05 58.14064 1.48102 35070 ft 467 kts 22°
2026-05-05 19:05 58.19796 1.53912 35118 ft 467 kts 22°
2026-05-05 19:06 58.25538 1.59752 35078 ft 468 kts 22°
2026-05-05 19:06 58.31282 1.65618 35073 ft 468 kts 22°
2026-05-05 19:07 58.37016 1.71494 35067 ft 468 kts 22°
2026-05-05 19:07 58.42754 1.77397 35068 ft 468 kts 22°
2026-05-05 19:08 58.48481 1.83309 35089 ft 469 kts 22°
2026-05-05 19:08 58.54218 1.89254 35073 ft 469 kts 22°
2026-05-05 19:09 58.59961 1.95228 35063 ft 469 kts 22°
2026-05-05 19:09 58.65573 2.01087 35054 ft 469 kts 22°
2026-05-05 19:10 58.71213 2.07005 34862 ft 452 kts 22°
2026-05-05 19:10 58.73962 2.09891 34503 ft 448 kts 22°
2026-05-05 19:10 58.76696 2.12764 34068 ft 448 kts 21°
2026-05-05 19:11 58.79422 2.15669 33552 ft 448 kts 24°
2026-05-05 19:11 58.82030 2.18980 33117 ft 450 kts 29°
2026-05-05 19:11 58.84556 2.22523 32721 ft 447 kts 30°
2026-05-05 19:11 58.87039 2.26119 32315 ft 445 kts 31°
2026-05-05 19:12 58.89103 2.29286 31959 ft 447 kts 37°
2026-05-05 19:12 58.89415 2.29839 31896 ft 448 kts 39°
2026-05-05 19:13 58.91460 2.34295 31438 ft 448 kts 46°
2026-05-05 19:13 58.93424 2.38939 30896 ft 445 kts 46°
2026-05-05 19:13 58.95380 2.43574 30322 ft 443 kts 46°
2026-05-05 19:13 58.97328 2.48177 29723 ft 441 kts 45°
2026-05-05 19:14 58.99265 2.52733 29174 ft 436 kts 45°
2026-05-05 19:14 59.01173 2.57207 28692 ft 430 kts 45°
2026-05-05 19:14 59.03072 2.61651 28110 ft 427 kts 45°
2026-05-05 19:14 59.04968 2.66087 27548 ft 423 kts 45°
2026-05-05 19:15 59.06839 2.70470 27056 ft 419 kts 45°
2026-05-05 19:15 59.08690 2.74812 26557 ft 414 kts 45°
2026-05-05 19:15 59.10514 2.79100 26030 ft 409 kts 45°
2026-05-05 19:15 59.12319 2.83352 25469 ft 406 kts 45°
2026-05-05 19:16 59.14109 2.87571 24927 ft 402 kts 45°
2026-05-05 19:16 59.15879 2.91754 24405 ft 398 kts 45°
2026-05-05 19:16 59.17628 2.95897 23893 ft 394 kts 45°
2026-05-05 19:16 59.19361 3.00007 23355 ft 390 kts 45°
2026-05-05 19:17 59.21006 3.03916 22794 ft 386 kts 45°
2026-05-05 19:17 59.22704 3.07956 22224 ft 382 kts 45°
2026-05-05 19:17 59.24378 3.11948 21663 ft 379 kts 45°
2026-05-05 19:17 59.26040 3.15918 21125 ft 375 kts 45°
2026-05-05 19:18 59.27678 3.19839 20709 ft 370 kts 45°
2026-05-05 19:18 59.29301 3.23729 20364 ft 370 kts 44°
2026-05-05 19:18 59.30931 3.27635 20006 ft 369 kts 44°
2026-05-05 19:18 59.32543 3.31509 19665 ft 367 kts 44°
2026-05-05 19:19 59.34150 3.35378 19329 ft 365 kts 44°
2026-05-05 19:19 59.35751 3.39240 18980 ft 364 kts 44°
2026-05-05 19:19 59.37340 3.43079 18659 ft 362 kts 44°
2026-05-05 19:19 59.38922 3.46908 18324 ft 361 kts 44°
2026-05-05 19:20 59.40498 3.50728 17947 ft 359 kts 44°
2026-05-05 19:20 59.42063 3.54527 17593 ft 357 kts 45°
2026-05-05 19:20 59.43614 3.58300 17266 ft 354 kts 45°
2026-05-05 19:20 59.45152 3.62047 16926 ft 351 kts 45°
2026-05-05 19:21 59.46652 3.65709 16608 ft 347 kts 45°
2026-05-05 19:21 59.48162 3.69401 16283 ft 342 kts 46°
2026-05-05 19:21 59.49651 3.73052 15979 ft 334 kts 46°
2026-05-05 19:21 59.51089 3.76581 15658 ft 326 kts 46°
2026-05-05 19:22 59.52468 3.79972 15390 ft 317 kts 46°
2026-05-05 19:22 59.53833 3.83330 15092 ft 310 kts 47°
2026-05-05 19:22 59.55176 3.86638 14839 ft 301 kts 47°
2026-05-05 19:22 59.56456 3.89794 14558 ft 296 kts 47°
2026-05-05 19:23 59.57730 3.92936 14289 ft 291 kts 47°
2026-05-05 19:23 59.58984 3.96033 14027 ft 287 kts 47°
2026-05-05 19:23 59.60221 3.99093 13755 ft 283 kts 48°
2026-05-05 19:23 59.61391 4.01990 13498 ft 279 kts 48°
2026-05-05 19:24 59.62596 4.04978 13232 ft 278 kts 48°
2026-05-05 19:24 59.63804 4.07976 12979 ft 279 kts 48°
2026-05-05 19:24 59.65018 4.10993 12703 ft 282 kts 48°
2026-05-05 19:24 59.66242 4.14039 12440 ft 282 kts 48°
2026-05-05 19:25 59.67456 4.17067 12181 ft 280 kts 48°
2026-05-05 19:25 59.68659 4.20073 11896 ft 276 kts 48°
2026-05-05 19:25 59.69836 4.23023 11649 ft 269 kts 48°
2026-05-05 19:25 59.70980 4.25890 11391 ft 263 kts 48°
2026-05-05 19:26 59.72107 4.28716 11142 ft 260 kts 48°
2026-05-05 19:26 59.73224 4.31519 10889 ft 259 kts 49°
2026-05-05 19:26 59.74337 4.34314 10658 ft 258 kts 49°
2026-05-05 19:26 59.75399 4.37172 10400 ft 259 kts 59°
2026-05-05 19:27 59.75860 4.40614 10195 ft 260 kts 87°
2026-05-05 19:27 59.75823 4.44153 10128 ft 257 kts 91°
2026-05-05 19:27 59.75726 4.47727 10035 ft 262 kts 92°
2026-05-05 19:27 59.75619 4.51377 9837 ft 268 kts 92°
2026-05-05 19:28 59.75504 4.55080 9671 ft 269 kts 92°
2026-05-05 19:28 59.75386 4.58752 9488 ft 265 kts 92°
2026-05-05 19:28 59.75267 4.62364 9331 ft 260 kts 92°
2026-05-05 19:28 59.75148 4.65912 9188 ft 257 kts 92°
2026-05-05 19:29 59.75209 4.69441 9033 ft 255 kts 82°
2026-05-05 19:29 59.75390 4.72948 8880 ft 256 kts 82°
2026-05-05 19:29 59.75567 4.76464 8723 ft 257 kts 82°
2026-05-05 19:29 59.75743 4.79990 8553 ft 257 kts 82°
2026-05-05 19:30 59.75917 4.83508 8285 ft 256 kts 81°
2026-05-05 19:30 59.76206 4.86970 8021 ft 253 kts 77°
2026-05-05 19:30 59.76516 4.90396 7758 ft 252 kts 77°
2026-05-05 19:30 59.76844 4.93802 7493 ft 250 kts 71°
2026-05-05 19:31 59.77673 4.96726 7209 ft 242 kts 40°
2026-05-05 19:31 59.79027 4.98656 6990 ft 241 kts 28°
2026-05-05 19:31 59.80411 5.00285 6772 ft 249 kts 27°
2026-05-05 19:31 59.81936 5.02039 6530 ft 256 kts 27°
2026-05-05 19:32 59.83490 5.03816 6271 ft 259 kts 27°
2026-05-05 19:32 59.85045 5.05586 5992 ft 257 kts 27°
2026-05-05 19:32 59.86593 5.07342 5707 ft 255 kts 27°
2026-05-05 19:32 59.88125 5.09076 5447 ft 253 kts 27°
2026-05-05 19:33 59.89650 5.10801 5175 ft 251 kts 27°
2026-05-05 19:33 59.91162 5.12508 4914 ft 249 kts 27°
2026-05-05 19:33 59.92663 5.14200 4629 ft 247 kts 27°
2026-05-05 19:33 59.94156 5.15884 4380 ft 245 kts 27°
2026-05-05 19:34 59.95635 5.17555 4098 ft 243 kts 27°
2026-05-05 19:34 59.97104 5.19213 3826 ft 242 kts 27°
2026-05-05 19:34 59.98564 5.20860 3563 ft 240 kts 27°
2026-05-05 19:35 60.01447 5.24117 3073 ft 235 kts 28°
2026-05-05 19:35 60.02840 5.25693 3016 ft 225 kts 27°
2026-05-05 19:35 60.04188 5.27223 3007 ft 222 kts 27°
2026-05-05 19:35 60.05534 5.28730 3006 ft 221 kts 24°
2026-05-05 19:36 60.06994 5.29270 3014 ft 211 kts 352°
2026-05-05 19:36 60.08423 5.28817 3019 ft 206 kts 351°
2026-05-05 19:36 60.09833 5.28396 3038 ft 202 kts 350°
2026-05-05 19:36 60.11217 5.27945 3034 ft 199 kts 349°
2026-05-05 19:37 60.12537 5.27502 3020 ft 191 kts 349°
2026-05-05 19:37 60.13836 5.27062 3019 ft 189 kts 349°
2026-05-05 19:37 60.15143 5.26620 2897 ft 191 kts 349°
2026-05-05 19:37 60.16443 5.26179 2637 ft 187 kts 350°
2026-05-05 19:38 60.17709 5.25751 2400 ft 182 kts 349°
2026-05-05 19:38 60.18943 5.25334 2141 ft 175 kts 350°
2026-05-05 19:38 60.20086 5.24947 1891 ft 160 kts 350°
2026-05-05 19:38 60.21133 5.24594 1664 ft 146 kts 350°
2026-05-05 19:39 60.22105 5.24265 1507 ft 138 kts 350°
2026-05-05 19:39 60.23060 5.23931 1291 ft 139 kts 349°
2026-05-05 19:39 60.24030 5.23600 1034 ft 142 kts 349°
2026-05-05 19:39 60.24996 5.23291 833 ft 141 kts 347°
2026-05-05 19:40 60.25972 5.22932 649 ft 142 kts 348°
2026-05-05 19:40 60.26947 5.22636 438 ft 141 kts 348°
2026-05-05 19:40 60.27919 5.22293 268 ft 141 kts 348°
2026-05-05 19:40 60.28837 5.21989 163 ft 124 kts 350°
2026-05-05 19:41 60.29543 5.21748 147 ft 75 kts 351°
2026-05-05 19:41 60.29874 5.21637 156 ft 24 kts 351°
2026-05-05 19:41 60.30010 5.21616 161 ft 16 kts 20°
2026-05-05 19:41 60.30041 5.21739 159 ft 10 kts 82°
2026-05-05 19:42 60.30045 5.21829 158 ft 6 kts 97°
2026-05-05 19:42 60.30030 5.21883 157 ft 7 kts 133°
2026-05-05 19:42 60.29976 5.21926 159 ft 9 kts 167°
2026-05-05 19:42 60.29912 5.21948 153 ft 10 kts 171°
2026-05-05 19:43 60.29835 5.21971 150 ft 11 kts 171°
2026-05-05 19:43 60.29786 5.21988 151 ft 1 kts 171°
2026-05-05 19:43 60.29784 5.21989 151 ft 0 kts 171°
2026-05-05 19:43 60.29758 5.21997 147 ft 10 kts 171°
2026-05-05 19:44 60.29662 5.22029 147 ft 20 kts 170°
2026-05-05 19:44 60.29513 5.22081 153 ft 22 kts 170°
2026-05-05 19:44 60.29366 5.22131 158 ft 21 kts 170°
2026-05-05 19:44 60.29222 5.22179 162 ft 21 kts 170°
2026-05-05 19:45 60.29096 5.22221 162 ft 16 kts 173°
2026-05-05 19:45 60.28990 5.22254 161 ft 14 kts 169°
2026-05-05 19:45 60.28895 5.22287 161 ft 14 kts 172°
2026-05-05 19:45 60.28819 5.22320 162 ft 8 kts 153°
2026-05-05 19:46 60.28812 5.22414 165 ft 8 kts 55°
2026-05-05 19:46 60.28840 5.22505 170 ft 7 kts 60°
2026-05-05 19:46 60.28858 5.22566 172 ft 0 kts 60°